| time (UTC) | temp F | wind direction | speed knots | gust knots | rain 1hr in | rain 24hr in | rain mn in | humidity % | barometer mb |
| 20260903171008 | 67 | 176 | 3.5 | 7.0 | 0.00 | 0.00 | 0.00 | 74 | 1015.0 |
| 20260903170025 | 66 | 163 | 1.7 | 5.2 | 0.00 | 0.00 | 0.00 | 75 | 1015.0 |
| 20260903165027 | 66 | 174 | 2.6 | 8.7 | 0.00 | 0.00 | 0.00 | 75 | 1015.0 |
| 20260903164033 | 65 | 158 | 2.6 | 7.0 | 0.00 | 0.00 | 0.00 | 76 | 1015.0 |
| 20260903163029 | 65 | 162 | 3.5 | 7.0 | 0.00 | 0.00 | 0.00 | 76 | 1015.1 |
| 20260903162016 | 65 | 157 | 3.5 | 7.8 | 0.00 | 0.00 | 0.00 | 76 | 1015.2 |
| 20260903161040 | 64 | 174 | 2.6 | 7.0 | 0.00 | 0.00 | 0.00 | 77 | 1015.2 |
| 20260903160018 | 64 | 147 | 2.6 | 7.8 | 0.00 | 0.00 | 0.00 | 77 | 1015.1 |
| 20260903155022 | 64 | 161 | 1.7 | 7.8 | 0.00 | 0.00 | 0.00 | 77 | 1015.3 |
| 20260903154008 | 64 | 138 | 1.7 | 7.0 | 0.00 | 0.00 | 0.00 | 77 | 1015.4 |
| 20260903153031 | 64 | 146 | 1.7 | 6.1 | 0.00 | 0.00 | 0.00 | 77 | 1015.4 |
| 20260903152010 | 64 | 171 | 3.5 | 7.0 | 0.00 | 0.00 | 0.00 | 75 | 1015.3 |
| 20260903151029 | 62 | 150 | 4.3 | 7.0 | 0.00 | 0.00 | 0.00 | 79 | 1015.3 |
| 20260903150010 | 61 | 170 | 2.6 | 4.3 | 0.00 | 0.00 | 0.00 | 81 | 1015.3 |
| 20260903145036 | 61 | 135 | 2.6 | 5.2 | 0.00 | 0.00 | 0.00 | 81 | 1015.3 |
| 20260903144040 | 61 | 116 | 3.5 | 7.8 | 0.00 | 0.00 | 0.00 | 81 | 1015.3 |
| 20260903143039 | 60 | 117 | 2.6 | 5.2 | 0.00 | 0.00 | 0.00 | 82 | 1015.2 |
| 20260903142043 | 60 | 136 | 1.7 | 6.1 | 0.00 | 0.00 | 0.00 | 82 | 1015.2 |
| 20260903141020 | 60 | 132 | 2.6 | 6.1 | 0.00 | 0.00 | 0.00 | 82 | 1015.0 |
| 20260903140021 | 60 | 112 | 3.5 | 6.1 | 0.00 | 0.00 | 0.00 | 83 | 1014.9 |
| 20260903135024 | 60 | 135 | 1.7 | 6.1 | 0.00 | 0.00 | 0.00 | 82 | 1014.9 |
| 20260903134044 | 60 | 133 | 3.5 | 6.1 | 0.00 | 0.00 | 0.00 | 82 | 1014.9 |
| 20260903133009 | 60 | 118 | 2.6 | 5.2 | 0.00 | 0.00 | 0.00 | 82 | 1014.9 |
| 20260903132033 | 60 | 126 | 3.5 | 5.2 | 0.00 | 0.00 | 0.00 | 82 | 1015.0 |
| 20260903131014 | 60 | 123 | 2.6 | 6.1 | 0.00 | 0.00 | 0.00 | 82 | 1015.0 |
| 20260903130012 | 60 | 155 | 2.6 | 6.1 | 0.00 | 0.00 | 0.00 | 82 | 1015.1 |
| 20260903125017 | 60 | 150 | 1.7 | 7.8 | 0.00 | 0.00 | 0.00 | 81 | 1015.1 |
| 20260903124022 | 60 | 116 | 4.3 | 6.1 | 0.00 | 0.00 | 0.00 | 81 | 1015.1 |
| 20260903123022 | 61 | 132 | 1.7 | 7.8 | 0.00 | 0.00 | 0.00 | 81 | 1015.0 |
| 20260903122027 | 61 | 149 | 1.7 | 6.1 | 0.00 | 0.00 | 0.00 | 81 | 1015.0 |
| 20260903121008 | 61 | 101 | 2.6 | 7.0 | 0.00 | 0.00 | 0.00 | 81 | 1015.0 |
| 20260903120027 | 61 | 135 | 1.7 | 5.2 | 0.00 | 0.00 | 0.00 | 81 | 1015.1 |
| 20260903115013 | 61 | 136 | 3.5 | 7.0 | 0.00 | 0.00 | 0.00 | 81 | 1015.1 |
| 20260903114016 | 61 | 142 | 4.3 | 7.8 | 0.00 | 0.00 | 0.00 | 81 | 1015.3 |
| 20260903113021 | 61 | 173 | 3.5 | 8.7 | 0.00 | 0.00 | 0.00 | 81 | 1015.4 |
| 20260903112023 | 61 | 143 | 1.7 | 6.1 | 0.00 | 0.00 | 0.00 | 81 | 1015.5 |
| 20260903111007 | 61 | 133 | 2.6 | 7.0 | 0.00 | 0.00 | 0.00 | 81 | 1015.5 |
| 20260903110009 | 61 | 143 | 4.3 | 7.8 | 0.00 | 0.00 | 0.00 | 81 | 1015.4 |
| 20260903105013 | 61 | 153 | 4.3 | 8.7 | 0.00 | 0.00 | 0.00 | 81 | 1015.5 |
| 20260903104016 | 61 | 143 | 3.5 | 6.1 | 0.00 | 0.00 | 0.00 | 81 | 1015.5 |
| 20260903103020 | 61 | 128 | 3.5 | 7.8 | 0.00 | 0.00 | 0.00 | 81 | 1015.4 |
| 20260903102018 | 61 | 143 | 2.6 | 7.8 | 0.00 | 0.00 | 0.00 | 81 | 1015.4 |
| 20260903101020 | 61 | 169 | 3.5 | 7.0 | 0.00 | 0.00 | 0.00 | 81 | 1015.5 |
| 20260903100023 | 61 | 168 | 3.5 | 7.0 | 0.00 | 0.00 | 0.00 | 80 | 1015.4 |
| 20260903095027 | 61 | 127 | 4.3 | 7.8 | 0.00 | 0.00 | 0.00 | 80 | 1015.5 |
| 20260903094024 | 61 | 110 | 3.5 | 7.0 | 0.00 | 0.00 | 0.00 | 79 | 1015.6 |
| 20260903093011 | 61 | 120 | 4.3 | 7.8 | 0.00 | 0.00 | 0.00 | 79 | 1015.6 |
| 20260903092019 | 61 | 154 | 3.5 | 6.1 | 0.00 | 0.00 | 0.00 | 78 | 1015.7 |
| 20260903091021 | 61 | 153 | 2.6 | 6.1 | 0.00 | 0.00 | 0.00 | 77 | 1015.8 |
| 20260903090027 | 61 | 166 | 2.6 | 7.0 | 0.00 | 0.00 | 0.00 | 77 | 1015.7 |
| 20260903085013 | 62 | 169 | 3.5 | 7.0 | 0.00 | 0.00 | 0.00 | 76 | 1015.7 |
| 20260903084037 | 62 | 150 | 2.6 | 7.0 | 0.00 | 0.00 | 0.00 | 75 | 1015.7 |
| 20260903083018 | 62 | 142 | 4.3 | 7.8 | 0.00 | 0.00 | 0.00 | 74 | 1015.7 |
| 20260903082041 | 62 | 152 | 2.6 | 7.0 | 0.00 | 0.00 | 0.00 | 74 | 1015.8 |
| 20260903081019 | 62 | 177 | 2.6 | 7.0 | 0.00 | 0.00 | 0.00 | 73 | 1015.6 |
| 20260903080023 | 63 | 172 | 2.6 | 4.3 | 0.00 | 0.00 | 0.00 | 71 | 1015.6 |
| 20260903075025 | 63 | 138 | 2.6 | 5.2 | 0.00 | 0.00 | 0.00 | 70 | 1015.7 |
| 20260903074007 | 63 | 124 | 2.6 | 7.0 | 0.00 | 0.00 | 0.00 | 69 | 1015.5 |
| 20260903073025 | 64 | 153 | 3.5 | 8.7 | 0.00 | 0.00 | 0.00 | 69 | 1015.4 |
| 20260903072025 | 64 | 151 | 2.6 | 6.1 | 0.00 | 0.00 | 0.00 | 68 | 1015.5 |
| 20260903071008 | 64 | 170 | 2.6 | 6.1 | 0.00 | 0.00 | 0.00 | 67 | 1015.5 |
| 20260903070024 | 65 | 143 | 1.7 | 4.3 | 0.00 | 0.00 | 0.00 | 67 | 1015.5 |
| 20260903065017 | 65 | 161 | 1.7 | 4.3 | 0.00 | 0.00 | 0.00 | 66 | 1015.5 |
| 20260903064018 | 65 | 146 | 2.6 | 3.5 | 0.00 | 0.00 | 0.00 | 66 | 1015.5 |
| 20260903063040 | 65 | 186 | 1.7 | 3.5 | 0.00 | 0.00 | 0.00 | 65 | 1015.5 |
| 20260903062019 | 66 | 157 | 0.0 | 3.5 | 0.00 | 0.00 | 0.00 | 64 | 1015.4 |
| 20260903061021 | 66 | 162 | 1.7 | 3.5 | 0.00 | 0.00 | 0.00 | 63 | 1015.4 |
| 20260903060021 | 66 | 172 | 1.7 | 6.1 | 0.00 | 0.00 | 0.00 | 63 | 1015.5 |
| 20260903055038 | 66 | 166 | 1.7 | 4.3 | 0.00 | 0.00 | 0.00 | 63 | 1015.5 |
| 20260903054019 | 67 | 185 | 1.7 | 3.5 | 0.00 | 0.00 | 0.00 | 63 | 1015.5 |
| 20260903053034 | 67 | 197 | 0.0 | 2.6 | 0.00 | 0.00 | 0.00 | 62 | 1015.6 |
| 20260903052016 | 68 | 138 | 0.9 | 2.6 | 0.00 | 0.00 | 0.00 | 61 | 1015.5 |
| 20260903051017 | 68 | 132 | 1.7 | 2.6 | 0.00 | 0.00 | 0.00 | 60 | 1015.5 |
| 20260903050017 | 68 | 197 | 0.9 | 2.6 | 0.00 | 0.00 | 0.00 | 59 | 1015.5 |
| 20260903045013 | 69 | 130 | 0.9 | 2.6 | 0.00 | 0.00 | 0.00 | 58 | 1015.6 |
| 20260903044016 | 69 | 133 | 1.7 | 2.6 | 0.00 | 0.00 | 0.00 | 57 | 1015.5 |
| 20260903043020 | 69 | 144 | 1.7 | 3.5 | 0.00 | 0.00 | 0.00 | 57 | 1015.5 |
| 20260903042018 | 69 | 170 | 1.7 | 2.6 | 0.00 | 0.00 | 0.00 | 56 | 1015.5 |
| 20260903041018 | 70 | 199 | 0.9 | 2.6 | 0.00 | 0.00 | 0.00 | 55 | 1015.4 |
| 20260903040018 | 70 | 180 | 0.9 | 2.6 | 0.00 | 0.00 | 0.00 | 54 | 1015.1 |
| 20260903035015 | 71 | 241 | 0.9 | 3.5 | 0.00 | 0.00 | 0.00 | 54 | 1015.0 |
| 20260903034013 | 71 | 233 | 0.9 | 4.3 | 0.00 | 0.00 | 0.00 | 53 | 1014.8 |
| 20260903033017 | 71 | 209 | 1.7 | 4.3 | 0.00 | 0.00 | 0.00 | 54 | 1014.8 |
| 20260903032012 | 71 | 260 | 1.7 | 4.3 | 0.00 | 0.00 | 0.00 | 54 | 1014.8 |
| 20260903031012 | 72 | 203 | 0.9 | 2.6 | 0.00 | 0.00 | 0.00 | 54 | 1014.6 |
| 20260903030034 | 72 | 247 | 0.9 | 4.3 | 0.00 | 0.00 | 0.00 | 54 | 1014.7 |
| 20260903025032 | 73 | 216 | 0.9 | 2.6 | 0.00 | 0.00 | 0.00 | 54 | 1014.7 |
| 20260903024012 | 73 | 194 | 0.9 | 5.2 | 0.00 | 0.00 | 0.00 | 53 | 1014.7 |
| 20260903023015 | 74 | 251 | 1.7 | 7.0 | 0.00 | 0.00 | 0.00 | 53 | 1014.7 |
| 20260903022012 | 74 | 239 | 3.5 | 8.7 | 0.00 | 0.00 | 0.00 | 52 | 1014.8 |
| 20260903021017 | 75 | 244 | 1.7 | 8.7 | 0.00 | 0.00 | 0.00 | 52 | 1014.7 |
| 20260903020019 | 75 | 250 | 2.6 | 7.8 | 0.00 | 0.00 | 0.00 | 52 | 1014.7 |
| 20260903015037 | 76 | 226 | 1.7 | 6.1 | 0.00 | 0.00 | 0.00 | 51 | 1014.7 |
| 20260903014038 | 77 | 234 | 2.6 | 8.7 | 0.00 | 0.00 | 0.00 | 50 | 1014.8 |
| 20260903013023 | 77 | 265 | 1.7 | 11.3 | 0.00 | 0.00 | 0.00 | 50 | 1014.9 |
| 20260903012023 | 77 | 251 | 6.1 | 7.8 | 0.00 | 0.00 | 0.00 | 49 | 1015.0 |
| 20260903011044 | 77 | 182 | 2.6 | 8.7 | 0.00 | 0.00 | 0.00 | 49 | 1015.0 |
| 20260903010025 | 76 | 239 | 2.6 | 11.3 | 0.00 | 0.00 | 0.00 | 50 | 1014.9 |
| 20260903005020 | 77 | 132 | 2.6 | 8.7 | 0.00 | 0.00 | 0.00 | 50 | 1014.9 |
| 20260903004046 | 78 | 182 | 2.6 | 7.8 | 0.00 | 0.00 | 0.00 | 48 | 1015.2 |
| 20260903003117 | 79 | 245 | 2.6 | 9.6 | 0.00 | 0.00 | 0.00 | 47 | 1015.2 |
| 20260903003029 | 79 | 245 | 2.6 | 9.6 | 0.00 | 0.00 | 0.00 | 47 | 1015.2 |
| 20260903002024 | 78 | 218 | 3.5 | 11.3 | 0.00 | 0.00 | 0.00 | 49 | 1015.2 |
| 20260903001010 | 78 | 253 | 3.5 | 7.0 | 0.00 | 0.00 | 0.00 | 50 | 1015.4 |
| 20260903000012 | 78 | 234 | 4.3 | 8.7 | 0.00 | 0.00 | 0.00 | 49 | 1015.4 |
| 20260902235026 | 78 | 234 | 5.2 | 9.6 | 0.00 | 0.00 | 0.00 | 50 | 1015.4 |
| 20260902234026 | 77 | 270 | 2.6 | 10.4 | 0.00 | 0.00 | 0.00 | 50 | 1015.5 |
| 20260902233010 | 78 | 188 | 5.2 | 11.3 | 0.00 | 0.00 | 0.00 | 50 | 1015.5 |
| 20260902232025 | 78 | 295 | 4.3 | 8.7 | 0.00 | 0.00 | 0.00 | 50 | 1015.7 |
| 20260902231028 | 78 | 185 | 2.6 | 13.0 | 0.00 | 0.00 | 0.00 | 50 | 1015.6 |
| 20260902230027 | 78 | 289 | 5.2 | 10.4 | 0.00 | 0.00 | 0.00 | 48 | 1015.6 |
| 20260902225009 | 79 | 188 | 3.5 | 7.8 | 0.00 | 0.00 | 0.00 | 48 | 1015.7 |
| 20260902224026 | 79 | 249 | 6.1 | 11.3 | 0.00 | 0.00 | 0.00 | 49 | 1016.0 |
| 20260902223028 | 79 | 196 | 5.2 | 10.4 | 0.00 | 0.00 | 0.00 | 48 | 1016.0 |
| 20260902222010 | 79 | 213 | 4.3 | 8.7 | 0.00 | 0.00 | 0.00 | 47 | 1016.0 |
| 20260902221045 | 78 | 193 | 6.1 | 10.4 | 0.00 | 0.00 | 0.00 | 49 | 1016.0 |
| 20260902220026 | 78 | 265 | 4.3 | 9.6 | 0.00 | 0.00 | 0.00 | 50 | 1016.1 |
| 20260902215027 | 77 | 270 | 5.2 | 9.6 | 0.00 | 0.00 | 0.00 | 50 | 1016.2 |
| 20260902214023 | 76 | 311 | 3.5 | 8.7 | 0.00 | 0.00 | 0.00 | 50 | 1016.5 |
| 20260902213027 | 78 | 260 | 3.5 | 8.7 | 0.00 | 0.00 | 0.00 | 49 | 1016.5 |
| 20260902212012 | 78 | 255 | 1.7 | 8.7 | 0.00 | 0.00 | 0.00 | 49 | 1016.6 |
| 20260902211038 | 77 | 175 | 2.6 | 9.6 | 0.00 | 0.00 | 0.00 | 52 | 1016.6 |
| 20260902210019 | 75 | 270 | 3.5 | 9.6 | 0.00 | 0.00 | 0.00 | 52 | 1016.6 |
| 20260902205022 | 76 | 295 | 3.5 | 8.7 | 0.00 | 0.00 | 0.00 | 53 | 1016.7 |
| 20260902204018 | 77 | 251 | 3.5 | 8.7 | 0.00 | 0.00 | 0.00 | 52 | 1016.8 |
| 20260902203105 | 75 | 274 | 4.3 | 9.6 | 0.00 | 0.00 | 0.00 | 53 | 1016.9 |
| 20260902202014 | 77 | 184 | 3.5 | 9.6 | 0.00 | 0.00 | 0.00 | 53 | 1017.1 |
| 20260902201031 | 76 | 254 | 3.5 | 7.0 | 0.00 | 0.00 | 0.00 | 53 | 1017.2 |
| 20260902200009 | 75 | 249 | 3.5 | 7.0 | 0.00 | 0.00 | 0.00 | 56 | 1017.3 |
| 20260902195048 | 75 | 238 | 2.6 | 7.8 | 0.00 | 0.00 | 0.00 | 56 | 1017.3 |
| 20260902194031 | 75 | 245 | 4.3 | 9.6 | 0.00 | 0.00 | 0.00 | 55 | 1017.4 |
| 20260902193034 | 75 | 227 | 2.6 | 8.7 | 0.00 | 0.00 | 0.00 | 55 | 1017.6 |
| 20260902192009 | 74 | 253 | 4.3 | 8.7 | 0.00 | 0.00 | 0.00 | 56 | 1017.6 |
| 20260902191016 | 74 | 230 | 2.6 | 4.3 | 0.00 | 0.00 | 0.00 | 55 | 1017.8 |
| 20260902190036 | 74 | 196 | 4.3 | 6.1 | 0.00 | 0.00 | 0.00 | 56 | 1017.9 |
| 20260902185011 | 74 | 103 | 1.7 | 3.5 | 0.00 | 0.00 | 0.00 | 56 | 1017.8 |
| 20260902184016 | 73 | 306 | 0.9 | 5.2 | 0.00 | 0.00 | 0.00 | 59 | 1017.8 |
| 20260902183020 | 73 | 284 | 2.6 | 4.3 | 0.00 | 0.00 | 0.00 | 58 | 1017.9 |
| 20260902182038 | 74 | 164 | 2.6 | 7.0 | 0.00 | 0.00 | 0.00 | 57 | 1018.0 |
| 20260902181016 | 74 | 124 | 2.6 | 6.1 | 0.00 | 0.00 | 0.00 | 58 | 1017.9 |
| 20260902180016 | 74 | 247 | 3.5 | 7.8 | 0.00 | 0.00 | 0.00 | 58 | 1017.9 |
| 20260902175009 | 74 | 282 | 3.5 | 7.0 | 0.00 | 0.00 | 0.00 | 59 | 1018.0 |
| 20260902174035 | 73 | 107 | 3.5 | 5.2 | 0.00 | 0.00 | 0.00 | 60 | 1018.0 |
| 20260902173018 | 72 | 149 | 2.6 | 5.2 | 0.00 | 0.00 | 0.00 | 62 | 1017.9 |
| 20260902172020 | 70 | 223 | 2.6 | 4.3 | 0.00 | 0.00 | 0.00 | 64 | 1017.8 |